Location: Kermapucano
(48.0667°N, 3.3000°W)
Time: 19:32:52
(UTC+00:00)

Genesis I - Pass Details

Date: 29 November 2020
Orbit: 493 x 528 km, 64.5° (Epoch: 27 January)

Event Time Altitude Azimuth Distance (km) Brightness Sun altitude
Exits shadow 05:24:31 17° 190° (S) 1,305 5.2 -21.9°
Maximum altitude 05:27:07 46° 122° (ESE) 678 4.1 -21.5°
Drops below altitude 10° 05:30:49 10° 49° (NE) 1,724 6.3 -20.9°
Sets 05:33:03 0° 43° (NE) 2,620 7.2 -20.5°
